User: anonymous
Location: Oshawa
(43.9000°N, 78.8670°W)
Time: 16:00:46
(UTC-04:00)
Language:

Cosmos 839 Rocket - Orbit

View from above orbital plane
View from above orbital plane
View from above satellite
View from above satellite

Ground track
Ground track

The orbit data is extracted from the following two-line orbital elements,

1 09013U 76067B   14259.15049071 -.00000005  00000-0  16744-3 0  5398
2 09013 065.8662 157.7121 0705981 107.0196 039.3600 12.35307099722502
Epoch (UTC): 16 September 2014 03:36:42
Eccentricity: 0.0705981
inclination: 65.8662°
perigee height: 968 km
apogee height: 2084 km
right ascension of ascending node: 157.7121°
argument of perigee: 107.0196°
revolutions per day: 12.35307099
mean anomaly at epoch: 39.3600°
orbit number at epoch: 72250

The dashed part of the orbit path shows where the satellite is in the earth's shadow,  

DLR